Date String (YYYY-MM-DD hh:mm:ss) UTC,Instrument flags,Ambient pressure (hPa),Sample flow (lpm),Bypass flow (lpm),Sample temperature (°C),Ambient temperature (°C),ASC tube jacket temperature (°C),LED temperature (°C),Box temperature (°C),Sample RH (%),Span deviation,Mass concentration (μg/m³),Mass concentration (μg/m³),Mass concentration (μg/m³)
DateTimeUTC,F1_M11,P_M11,Q1_M11,Q2_M11,T1_M11,T2_M11,T3_M11,T4_M11,T5_M11,U1_M11,ZSPAN_M11,X0_M11,X2_M11,X1_M11
2022-07-26 00:00:00,,0825.3,5.00,0.00,29.4,27.1,00.0,38.0,31.1,26.1,0000.0,0012.47,0007.65,0006.92
2022-07-26 00:01:00,,0825.4,4.99,0.00,29.3,27.2,00.0,38.0,31.1,26.5,0000.0,0012.12,0007.62,0006.93
2022-07-26 00:02:00,,0825.4,5.00,0.00,29.3,27.4,00.0,38.0,31.1,26.5,0000.0,0012.04,0007.67,0006.94
2022-07-26 00:03:00,,0825.3,5.00,0.00,29.3,27.6,00.0,38.0,31.2,25.7,0000.0,0012.55,0007.70,0006.96
2022-07-26 00:04:00,,0825.3,5.00,0.00,29.4,27.9,00.0,38.0,31.3,25.2,0000.0,0013.60,0007.75,0006.96
2022-07-26 00:05:00,,0825.3,4.99,0.00,29.4,28.1,00.0,38.0,31.4,25.2,0000.0,0014.11,0007.75,0006.96
2022-07-26 00:06:00,,0825.3,5.01,0.00,29.5,28.3,00.0,38.1,31.4,25.7,0000.0,0014.35,0007.78,0006.96
2022-07-26 00:07:00,,0825.4,4.99,0.00,29.5,28.3,00.0,38.1,31.5,25.9,0000.0,0014.94,0007.82,0006.98
2022-07-26 00:08:00,,0825.4,5.00,0.00,29.5,27.7,00.0,38.0,31.4,25.5,0000.0,0015.61,0007.81,0006.97
2022-07-26 00:09:00,,0825.3,5.02,0.00,29.4,27.3,00.0,38.0,31.3,25.3,0000.0,0016.61,0007.86,0006.99
2022-07-26 00:10:00,,0825.3,4.99,0.00,29.4,27.2,00.0,38.0,31.2,25.8,0000.0,0016.64,0007.89,0007.00
2022-07-26 00:11:00,,0825.3,5.00,0.00,29.4,27.3,00.0,38.0,31.1,26.3,0000.0,0016.67,0007.90,0006.99
2022-07-26 00:12:00,,0825.3,5.00,0.00,29.4,27.5,00.0,38.0,31.2,26.7,0000.0,0016.74,0007.94,0006.98
2022-07-26 00:13:00,,0825.3,5.01,0.00,29.4,27.7,00.0,38.0,31.2,26.4,0000.0,0016.91,0007.93,0006.98
2022-07-26 00:14:00,,0825.4,4.99,0.00,29.4,27.9,00.0,38.0,31.3,26.7,0000.0,0016.38,0007.90,0006.98
2022-07-26 00:15:00,,0825.3,5.00,0.00,29.4,28.1,00.0,38.1,31.4,25.3,0000.0,0015.30,0007.91,0006.98
2022-07-26 00:16:00,,0825.3,5.00,0.00,29.5,28.3,00.0,38.1,31.5,24.4,0000.0,0014.66,0007.95,0007.01
2022-07-26 00:17:00,,0825.3,4.99,0.00,29.5,28.1,00.0,38.1,31.5,25.6,0000.0,0014.19,0007.93,0007.05
2022-07-26 00:18:00,,0825.4,5.00,0.00,29.5,27.5,00.0,38.0,31.4,24.7,0000.0,0013.59,0007.92,0007.08
2022-07-26 00:19:00,,0825.3,5.01,0.00,29.4,27.2,00.0,38.0,31.3,24.9,0000.0,0013.66,0007.92,0007.11
2022-07-26 00:20:00,,0825.4,4.99,0.00,29.4,27.2,00.0,38.0,31.1,25.5,0000.0,0012.86,0007.94,0007.14
2022-07-26 00:21:00,,0825.3,5.00,0.00,29.4,27.4,00.0,38.0,31.1,26.3,0000.0,0013.25,0007.98,0007.19
2022-07-26 00:22:00,,0825.4,5.01,0.00,29.4,27.6,00.0,38.0,31.2,26.0,0000.0,0013.83,0007.99,0007.23
2022-07-26 00:23:00,,0825.3,4.99,0.00,29.4,27.8,00.0,38.0,31.3,26.5,0000.0,0014.05,0008.04,0007.27
2022-07-26 00:24:00,,0825.3,5.01,0.00,29.4,28.0,00.0,38.1,31.4,25.8,0000.0,0014.18,0008.11,0007.31
2022-07-26 00:25:00,,0825.4,5.00,0.00,29.5,28.2,00.0,38.1,31.5,25.3,0000.0,0015.75,0008.15,0007.35
2022-07-26 00:26:00,,0825.4,5.00,0.00,29.5,28.0,00.0,38.1,31.4,25.6,0000.0,0016.29,0008.22,0007.41
2022-07-26 00:27:00,,0825.4,5.01,0.00,29.5,27.4,00.0,38.0,31.3,26.5,0000.0,0016.35,0008.24,0007.42
2022-07-26 00:28:00,,0825.4,4.99,0.00,29.4,27.1,00.0,38.0,31.2,27.1,0000.0,0016.41,0008.25,0007.42
2022-07-26 00:29:00,,0825.3,4.99,0.00,29.4,27.1,00.0,38.0,31.1,26.2,0000.0,0016.44,0008.26,0007.40
2022-07-26 00:30:00,,0825.3,4.99,0.00,29.3,27.3,00.0,38.0,31.1,27.1,0000.0,0016.72,0008.26,0007.39
2022-07-26 00:31:00,,0825.3,5.00,0.00,29.3,27.5,00.0,38.0,31.2,27.2,0000.0,0017.38,0008.24,0007.37
2022-07-26 00:32:00,,0825.4,5.00,0.00,29.4,27.7,00.0,38.0,31.2,27.9,0000.0,0017.85,0008.23,0007.33
2022-07-26 00:33:00,,0825.4,5.01,0.00,29.4,27.9,00.0,38.0,31.3,27.6,0000.0,0017.93,0008.24,0007.31
2022-07-26 00:34:00,,0825.4,4.98,0.00,29.4,28.1,00.0,38.1,31.4,27.8,0000.0,0017.97,0008.23,0007.32
2022-07-26 00:35:00,,0825.4,5.01,0.00,29.5,28.2,00.0,38.1,31.5,28.7,0000.0,0017.73,0008.20,0007.31
2022-07-26 00:36:00,,0825.3,5.00,0.00,29.5,27.7,00.0,38.0,31.4,28.7,0000.0,0016.23,0008.21,0007.29
2022-07-26 00:37:00,,0825.4,4.99,0.00,29.4,27.3,00.0,38.0,31.3,27.8,0000.0,0015.97,0008.17,0007.28
2022-07-26 00:38:00,,0825.4,5.00,0.00,29.4,27.1,00.0,38.0,31.2,26.9,0000.0,0016.27,0008.20,0007.31
2022-07-26 00:39:00,,0825.4,5.00,0.00,29.3,27.2,00.0,38.0,31.1,27.1,0000.0,0017.14,0008.20,0007.32
2022-07-26 00:40:00,,0825.4,5.00,0.00,29.3,27.4,00.0,38.0,31.1,27.8,0000.0,0017.22,0008.24,0007.35
2022-07-26 00:41:00,,0825.4,5.00,0.00,29.3,27.6,00.0,38.0,31.2,26.7,0000.0,0017.53,0008.31,0007.38
2022-07-26 00:42:00,,0825.4,5.00,0.00,29.4,27.8,00.0,38.0,31.3,26.1,0000.0,0017.38,0008.35,0007.41
2022-07-26 00:43:00,,0825.4,5.00,0.00,29.4,28.0,00.0,38.0,31.4,26.2,0000.0,0017.53,0008.37,0007.46
2022-07-26 00:44:00,,0825.4,4.98,0.00,29.5,28.2,00.0,38.1,31.4,25.9,0000.0,0017.59,0008.41,0007.51
2022-07-26 00:45:00,,0825.4,5.00,0.00,29.5,28.2,00.0,38.1,31.5,25.4,0000.0,0017.94,0008.44,0007.55
2022-07-26 00:46:00,,0825.4,4.99,0.00,29.5,27.6,00.0,38.0,31.3,26.2,0000.0,0018.32,0008.49,0007.59
2022-07-26 00:47:00,,0825.4,5.01,0.00,29.4,27.2,00.0,38.0,31.3,26.5,0000.0,0018.12,0008.51,0007.61
2022-07-26 00:48:00,,0825.4,5.00,0.00,29.4,27.2,00.0,38.0,31.1,26.7,0000.0,0018.57,0008.50,0007.62
2022-07-26 00:49:00,,0825.4,5.00,0.00,29.3,27.3,00.0,38.0,31.1,26.5,0000.0,0018.77,0008.48,0007.62
2022-07-26 00:50:00,,0825.4,5.00,0.00,29.3,27.5,00.0,38.0,31.1,25.3,0000.0,0017.80,0008.49,0007.62
2022-07-26 00:51:00,,0825.4,5.00,0.00,29.3,27.7,00.0,38.0,31.2,25.8,0000.0,0017.78,0008.50,0007.63
2022-07-26 00:52:00,,0825.4,4.99,0.00,29.4,27.9,00.0,38.0,31.3,26.2,0000.0,0017.85,0008.50,0007.63
2022-07-26 00:53:00,,0825.4,5.00,0.00,29.4,28.1,00.0,38.0,31.4,26.8,0001.1,0016.78,0008.52,0007.64
2022-07-26 00:54:00,,0825.4,5.01,0.00,29.5,28.3,00.0,38.1,31.5,26.6,0000.1,0015.99,0008.52,0007.62
2022-07-26 00:55:00,,0825.4,4.99,0.00,29.5,28.2,00.0,38.1,31.5,25.9,0000.0,0015.88,0008.54,0007.61
2022-07-26 00:56:00,,0825.4,5.00,0.00,29.5,27.6,00.0,38.0,31.4,25.7,0000.5,0015.51,0008.50,0007.58
2022-07-26 00:57:00,,0825.4,5.01,0.00,29.4,27.2,00.0,38.0,31.3,26.2,0002.5,0015.66,0008.47,0007.55
2022-07-26 00:58:00,,0825.4,4.99,0.00,29.4,27.1,00.0,38.0,31.2,26.1,0002.6,0015.57,0008.43,0007.53
2022-07-26 00:59:00,,0825.3,5.00,0.00,29.4,27.3,00.0,38.0,31.1,26.4,0001.6,0014.85,0008.43,0007.53
